IW1CBG-23 Weather Reports


time (UTC)temp
F
wind
direction
speed
knots
gust
knots
rain 1hr
in
rain 24hr
in
rain mn
in
humidity
%
barometer
mb
20260506223820 48 0.0 0.0 0.00 0.00 0.00 99 1005.4
20260506221743 49 0.0 0.0 0.00 0.00 0.00 99 1005.4
20260506215706 49 0.0 0.0 0.00 0.00 0.00 99 1005.4
20260506213630 50 0.0 0.0 0.00 0.00 0.00 99 1005.2
20260506203508 49 0.0 0.0 0.00 0.00 0.00 99 1004.9
20260506201430 49 0.0 0.0 0.00 0.00 0.00 99 1004.4
20260506195353 49 0.0 0.0 0.00 0.00 0.00 99 1004.2
20260506193316 49 0.0 0.0 0.00 0.00 0.00 99 1003.7
20260506191239 50 0.0 0.0 0.00 0.00 0.00 99 1003.4
20260506185202 50 0.0 0.0 0.00 0.00 0.00 99 1003.1
20260506181048 51 0.0 0.0 0.00 0.00 0.00 99 1002.5
20260506175011 51 0.0 0.0 0.00 0.00 0.00 99 1002.0
20260506172934 51 0.0 0.0 0.00 0.00 0.00 99 1001.6
20260506170856 52 0.0 0.0 0.00 0.00 0.00 99 1001.7
20260506164819 52 0.0 0.0 0.00 0.00 0.00 99 1001.7
20260506162744 53 0.0 0.0 0.00 0.00 0.00 99 1001.5
20260506160709 55 0.0 0.0 0.00 0.00 0.00 99 1001.3
20260506154632 56 0.0 0.0 0.00 0.00 0.00 96 1001.2
20260506152556 58 0.0 0.0 0.00 0.00 0.00 82 1001.3
20260506150520 59 0.0 0.0 0.00 0.00 0.00 75 1001.5
20260506144444 60 0.0 0.0 0.00 0.00 0.00 74 1001.6
20260506142407 60 0.0 0.0 0.00 0.00 0.00 78 1001.4
20260506140329 59 0.0 0.0 0.00 0.00 0.00 81 1001.4
20260506132214 58 0.0 0.0 0.00 0.00 0.00 87 1001.6
20260506130136 59 0.0 0.0 0.00 0.00 0.00 76 1001.8
20260506124057 59 0.0 0.0 0.00 0.00 0.00 69 1001.6
20260506122021 59 0.0 0.0 0.00 0.00 0.00 68 1001.5
20260506115945 61 0.0 0.0 0.00 0.00 0.00 65 1001.7
20260506113905 60 0.0 0.0 0.00 0.00 0.00 71 1001.9
20260506111827 59 0.0 0.0 0.00 0.00 0.00 80 1002.0
20260506105748 59 0.0 0.0 0.00 0.00 0.00 83 1002.2
20260506103711 58 0.0 0.0 0.00 0.00 0.00 91 1002.1
20260506101633 57 0.0 0.0 0.00 0.00 0.00 98 1002.4
20260506095555 56 0.0 0.0 0.00 0.00 0.00 99 1002.2
20260506093517 56 0.0 0.0 0.00 0.00 0.00 99 1002.2
20260506091438 54 0.0 0.0 0.00 0.00 0.00 99 1002.1
20260506085401 54 0.0 0.0 0.00 0.00 0.00 99 1002.1
20260506083324 54 0.0 0.0 0.00 0.00 0.00 99 1002.2
20260506081246 54 0.0 0.0 0.00 0.00 0.00 99 1002.0
20260506073132 51 0.0 0.0 0.00 0.00 0.00 99 1002.4
20260506071051 47 0.0 0.0 0.00 0.00 0.00 99 1002.5
20260506060857 46 0.0 0.0 0.00 0.00 0.00 99 1002.6
20260506050702 45 0.0 0.0 0.00 0.00 0.00 99 1002.8
20260506044626 45 0.0 0.0 0.00 0.00 0.00 99 1003.3
20260506042548 45 0.0 0.0 0.00 0.00 0.00 99 1003.3
20260506040511 45 0.0 0.0 0.00 0.00 0.00 99 1003.7
20260506034434 45 0.0 0.0 0.00 0.00 0.00 99 1003.7
20260506032356 45 0.0 0.0 0.00 0.00 0.00 99 1003.9
20260506030319 45 0.0 0.0 0.00 0.00 0.00 99 1003.9
20260506024243 45 0.0 0.0 0.00 0.00 0.00 99 1003.8
20260506022206 45 0.0 0.0 0.00 0.00 0.00 99 1004.4
20260506020128 45 0.0 0.0 0.00 0.00 0.00 99 1004.6
20260506014051 45 0.0 0.0 0.00 0.00 0.00 99 1004.6
20260506012014 45 0.0 0.0 0.00 0.00 0.00 99 1004.9
20260506003859 45 0.0 0.0 0.00 0.00 0.00 99 1005.3
20260506001821 45 0.0 0.0 0.00 0.00 0.00 99 1005.8
20260505235745 45 0.0 0.0 0.00 0.00 0.00 99 1006.2
20260505233707 45 0.0 0.0 0.00 0.00 0.00 99 1006.1
20260505231630 45 0.0 0.0 0.00 0.00 0.00 99 1006.5